GEFSMA_prec_meanprec_006.txt.gz
QPF
0.00 0.00 0.00 0.00 0.00 0.01 0.01 0.01 0.00 0.01 0.01 0.02 0.03 0.02 0.02 0.02 0.01 0.01 0.02 0.02 0.02 0.02 0.03 0.05 0.05 0.03 0.03 0.04 0.07 0.09 0.08 0.05 0.08 0.13 0.20 0.20 0.12 0.04 0.01 0.00 0.00 0.00 0.00
0.00 0.00 0.00 0.00 0.02 0.02 0.02 0.04 0.04 0.03 0.06 0.10 0.13 0.06 0.01 0.01 0.00 0.01 0.01 0.01 0.01 0.01 0.02 0.03 0.03 0.01 0.01 0.01 0.02 0.02 0.03 0.03 0.04 0.05 0.07 0.11 0.10 0.06 0.02 0.01 0.01 0.01 0.01
0.00 0.00 0.00 0.01 0.02 0.03 0.05 0.06 0.10 0.10 0.12 0.15 0.11 0.06 0.01 0.00 0.00 0.00 0.00 0.00 0.01 0.01 0.01 0.02 0.01 0.00 0.00 0.01 0.00 0.00 0.00 0.01 0.02 0.03 0.04 0.05 0.07 0.04 0.02 0.01 0.01 0.02 0.02
0.00 0.01 0.02 0.06 0.10 0.10 0.08 0.11 0.21 0.17 0.14 0.14 0.09 0.06 0.02 0.01 0.01 0.00 0.00 0.00 0.00 0.00 0.00 0.01 0.01 0.00 0.00 0.00 0.00 0.00 0.02 0.03 0.03 0.05 0.06 0.07 0.09 0.05 0.02 0.01 0.01 0.01 0.02
0.03 0.07 0.10 0.17 0.21 0.18 0.17 0.20 0.25 0.19 0.11 0.09 0.11 0.10 0.05 0.04 0.01 0.01 0.00 0.00 0.00 0.00 0.00 0.00 0.01 0.01 0.00 0.00 0.00 0.01 0.02 0.03 0.03 0.04 0.07 0.09 0.13 0.10 0.04 0.02 0.03 0.04 0.04
0.05 0.10 0.12 0.14 0.20 0.22 0.22 0.18 0.14 0.18 0.14 0.13 0.25 0.27 0.11 0.03 0.03 0.01 0.00 0.00 0.00 0.00 0.00 0.00 0.00 0.00 0.00 0.00 0.00 0.01 0.02 0.02 0.02 0.04 0.08 0.12 0.17 0.18 0.08 0.04 0.06 0.07 0.07
0.05 0.08 0.06 0.07 0.09 0.10 0.17 0.21 0.18 0.14 0.06 0.10 0.20 0.23 0.09 0.06 0.11 0.04 0.02 0.02 0.01 0.00 0.00 0.00 0.00 0.00 0.00 0.00 0.00 0.01 0.02 0.01 0.02 0.05 0.08 0.12 0.19 0.27 0.16 0.11 0.13 0.10 0.09
0.03 0.03 0.02 0.02 0.03 0.10 0.13 0.15 0.19 0.15 0.09 0.09 0.12 0.20 0.09 0.09 0.12 0.08 0.08 0.12 0.08 0.03 0.01 0.00 0.00 0.00 0.00 0.00 0.00 0.00 0.00 0.00 0.01 0.04 0.08 0.09 0.14 0.26 0.24 0.22 0.24 0.23 0.25
0.02 0.01 0.01 0.02 0.04 0.10 0.15 0.19 0.20 0.17 0.16 0.15 0.15 0.14 0.08 0.07 0.09 0.08 0.12 0.14 0.11 0.07 0.04 0.03 0.01 0.00 0.00 0.00 0.00 0.00 0.00 0.00 0.01 0.01 0.04 0.07 0.10 0.20 0.26 0.25 0.28 0.31 0.35
0.00 0.01 0.02 0.05 0.09 0.16 0.17 0.17 0.15 0.11 0.08 0.12 0.12 0.09 0.09 0.11 0.14 0.08 0.07 0.06 0.07 0.08 0.09 0.07 0.03 0.02 0.01 0.01 0.00 0.00 0.00 0.00 0.00 0.00 0.00 0.02 0.07 0.14 0.18 0.16 0.15 0.15 0.18
0.00 0.00 0.01 0.04 0.09 0.14 0.13 0.11 0.08 0.07 0.05 0.07 0.13 0.16 0.14 0.12 0.16 0.20 0.16 0.12 0.11 0.11 0.11 0.05 0.02 0.02 0.02 0.01 0.00 0.00 0.00 0.00 0.00 0.00 0.00 0.02 0.04 0.06 0.14 0.22 0.15 0.09 0.08
0.00 0.01 0.02 0.04 0.11 0.17 0.15 0.12 0.08 0.06 0.09 0.13 0.14 0.12 0.11 0.11 0.11 0.14 0.12 0.08 0.06 0.03 0.02 0.02 0.01 0.02 0.02 0.01 0.00 0.00 0.00 0.00 0.00 0.00 0.00 0.01 0.01 0.02 0.06 0.12 0.13 0.07 0.05
0.00 0.01 0.01 0.03 0.10 0.16 0.13 0.09 0.08 0.13 0.15 0.15 0.13 0.11 0.12 0.11 0.09 0.12 0.13 0.15 0.12 0.05 0.02 0.01 0.02 0.03 0.02 0.01 0.00 0.00 0.00 0.00 0.00 0.00 0.01 0.01 0.01 0.02 0.05 0.10 0.10 0.07 0.04
0.01 0.01 0.01 0.02 0.03 0.05 0.05 0.05 0.04 0.08 0.10 0.09 0.09 0.11 0.17 0.19 0.20 0.25 0.25 0.27 0.23 0.13 0.06 0.04 0.04 0.04 0.04 0.02 0.01 0.00 0.00 0.00 0.00 0.01 0.02 0.01 0.02 0.05 0.11 0.10 0.06 0.05 0.03
0.04 0.05 0.04 0.04 0.03 0.04 0.07 0.11 0.14 0.16 0.17 0.14 0.14 0.15 0.17 0.15 0.14 0.16 0.19 0.23 0.26 0.19 0.10 0.05 0.07 0.08 0.05 0.04 0.02 0.00 0.00 0.00 0.00 0.01 0.03 0.03 0.06 0.12 0.13 0.07 0.04 0.03 0.02
0.03 0.05 0.07 0.04 0.03 0.03 0.05 0.14 0.27 0.36 0.34 0.26 0.22 0.23 0.23 0.19 0.17 0.17 0.14 0.16 0.22 0.18 0.07 0.05 0.07 0.08 0.05 0.03 0.01 0.00 0.00 0.01 0.01 0.01 0.01 0.02 0.05 0.07 0.06 0.04 0.03 0.01 0.00
0.01 0.02 0.03 0.03 0.02 0.02 0.02 0.03 0.09 0.19 0.20 0.15 0.16 0.20 0.20 0.16 0.14 0.11 0.10 0.14 0.16 0.11 0.06 0.05 0.08 0.07 0.04 0.03 0.03 0.01 0.00 0.01 0.02 0.01 0.00 0.00 0.01 0.02 0.02 0.02 0.01 0.00 0.00
0.00 0.00 0.00 0.00 0.00 0.00 0.00 0.00 0.01 0.03 0.05 0.04 0.03 0.04 0.04 0.04 0.04 0.04 0.05 0.06 0.05 0.06 0.08 0.09 0.14 0.12 0.06 0.06 0.04 0.03 0.01 0.00 0.01 0.01 0.00 0.00 0.00 0.00 0.00 0.00 0.00 0.00 0.00
0.00 0.00 0.00 0.00 0.00 0.00 0.00 0.00 0.00 0.00 0.00 0.00 0.00 0.00 0.00 0.00 0.00 0.00 0.01 0.01 0.01 0.03 0.05 0.06 0.09 0.10 0.05 0.04 0.04 0.05 0.05 0.03 0.01 0.01 0.01 0.01 0.01 0.01 0.01 0.00 0.00 0.00 0.00
0.00 0.00 0.00 0.00 0.00 0.00 0.01 0.01 0.01 0.01 0.01 0.01 0.01 0.00 0.00 0.00 0.00 0.00 0.00 0.00 0.01 0.03 0.06 0.07 0.08 0.12 0.13 0.10 0.06 0.06 0.11 0.07 0.04 0.05 0.04 0.04 0.06 0.06 0.03 0.02 0.01 0.00 0.00
0.00 0.00 0.00 0.00 0.00 0.00 0.00 0.00 0.00 0.01 0.01 0.01 0.01 0.00 0.00 0.00 0.00 0.00 0.00 0.00 0.00 0.01 0.04 0.04 0.08 0.14 0.20 0.22 0.19 0.13 0.13 0.09 0.07 0.07 0.05 0.05 0.05 0.03 0.01 0.01 0.00 0.00 0.00
0.00 0.00 0.00 0.00 0.00 0.00 0.00 0.00 0.00 0.00 0.00 0.00 0.00 0.00 0.00 0.00 0.00 0.00 0.00 0.00 0.00 0.00 0.01 0.02 0.05 0.11 0.18 0.26 0.30 0.23 0.16 0.09 0.05 0.04 0.04 0.02 0.01 0.01 0.00 0.00 0.00 0.00 0.00
0.00 0.00 0.00 0.00 0.00 0.00 0.00 0.00 0.00 0.00 0.00 0.00 0.00 0.00 0.00 0.00 0.00 0.00 0.00 0.00 0.00 0.00 0.00 0.01 0.02 0.04 0.06 0.08 0.13 0.16 0.17 0.18 0.15 0.06 0.03 0.03 0.01 0.01 0.00 0.00 0.00 0.01 0.01
0.00 0.00 0.00 0.00 0.00 0.00 0.00 0.00 0.00 0.00 0.00 0.00 0.00 0.00 0.00 0.00 0.00 0.00 0.00 0.00 0.00 0.00 0.00 0.00 0.00 0.00 0.01 0.01 0.02 0.03 0.05 0.08 0.11 0.09 0.05 0.02 0.01 0.01 0.01 0.01 0.01 0.02 0.02
0.00 0.00 0.00 0.00 0.00 0.00 0.00 0.00 0.00 0.00 0.00 0.00 0.00 0.00 0.00 0.00 0.00 0.00 0.00 0.00 0.00 0.00 0.00 0.00 0.00 0.00 0.00 0.00 0.00 0.00 0.01 0.01 0.01 0.02 0.01 0.01 0.01 0.01 0.01 0.01 0.02 0.01 0.00
0.00 0.00 0.00 0.00 0.00 0.00 0.00 0.00 0.00 0.00 0.00 0.00 0.00 0.00 0.00 0.00 0.00 0.00 0.00 0.00 0.00 0.00 0.00 0.00 0.00 0.00 0.00 0.00 0.00 0.00 0.00 0.00 0.00 0.00 0.00 0.00 0.02 0.02 0.01 0.02 0.04 0.03 0.02

GEFSMA_prec_meanprec_012.txt.gz
QPF
0.00 0.00 0.00 0.00 0.00 0.01 0.01 0.01 0.02 0.04 0.05 0.02 0.01 0.00 0.00 0.00 0.00 0.00 0.00 0.00 0.02 0.03 0.08 0.10 0.07 0.06 0.06 0.05 0.03 0.01 0.01 0.01 0.01 0.02 0.04 0.07 0.11 0.12 0.09 0.03 0.01 0.01 0.01
0.00 0.00 0.00 0.00 0.00 0.00 0.00 0.01 0.03 0.05 0.05 0.05 0.03 0.01 0.00 0.00 0.00 0.00 0.00 0.00 0.01 0.02 0.03 0.04 0.05 0.05 0.05 0.05 0.04 0.02 0.01 0.01 0.01 0.01 0.02 0.04 0.08 0.09 0.08 0.04 0.01 0.01 0.02
0.00 0.00 0.00 0.00 0.00 0.00 0.00 0.01 0.03 0.04 0.06 0.10 0.06 0.02 0.01 0.00 0.00 0.00 0.00 0.00 0.00 0.00 0.02 0.03 0.02 0.03 0.04 0.05 0.04 0.03 0.01 0.01 0.01 0.01 0.01 0.02 0.06 0.08 0.07 0.04 0.02 0.01 0.02
0.00 0.00 0.01 0.00 0.01 0.01 0.01 0.01 0.04 0.06 0.08 0.08 0.03 0.01 0.01 0.00 0.00 0.00 0.00 0.00 0.00 0.00 0.01 0.02 0.01 0.02 0.03 0.04 0.04 0.02 0.01 0.01 0.01 0.01 0.01 0.02 0.06 0.10 0.08 0.05 0.02 0.01 0.01
0.01 0.01 0.01 0.01 0.00 0.01 0.00 0.01 0.01 0.02 0.02 0.03 0.02 0.01 0.00 0.00 0.00 0.00 0.00 0.00 0.00 0.00 0.00 0.00 0.01 0.01 0.03 0.04 0.03 0.02 0.02 0.02 0.02 0.03 0.02 0.03 0.06 0.10 0.08 0.05 0.04 0.02 0.02
0.02 0.01 0.00 0.01 0.01 0.00 0.00 0.00 0.00 0.01 0.01 0.01 0.02 0.00 0.00 0.00 0.00 0.00 0.00 0.00 0.00 0.01 0.00 0.00 0.00 0.00 0.01 0.01 0.02 0.03 0.03 0.03 0.04 0.03 0.02 0.02 0.05 0.08 0.07 0.06 0.04 0.02 0.03
0.03 0.02 0.01 0.01 0.01 0.00 0.00 0.00 0.00 0.00 0.00 0.02 0.03 0.01 0.00 0.00 0.00 0.00 0.00 0.01 0.02 0.02 0.01 0.01 0.01 0.00 0.00 0.00 0.01 0.02 0.04 0.04 0.04 0.02 0.02 0.03 0.03 0.05 0.06 0.06 0.04 0.03 0.05
0.06 0.04 0.02 0.01 0.00 0.00 0.00 0.00 0.00 0.00 0.00 0.02 0.04 0.04 0.01 0.00 0.00 0.00 0.00 0.00 0.01 0.01 0.01 0.02 0.02 0.01 0.00 0.00 0.00 0.00 0.01 0.03 0.03 0.03 0.03 0.03 0.02 0.02 0.05 0.07 0.07 0.06 0.07
0.05 0.03 0.01 0.00 0.00 0.00 0.00 0.00 0.00 0.01 0.01 0.01 0.06 0.10 0.05 0.01 0.00 0.00 0.00 0.00 0.01 0.01 0.02 0.03 0.02 0.02 0.01 0.00 0.00 0.00 0.00 0.00 0.01 0.02 0.02 0.02 0.01 0.01 0.04 0.07 0.08 0.09 0.10
0.02 0.01 0.00 0.00 0.00 0.00 0.00 0.00 0.00 0.01 0.02 0.01 0.03 0.06 0.10 0.09 0.06 0.02 0.01 0.02 0.02 0.02 0.03 0.03 0.03 0.03 0.02 0.02 0.01 0.01 0.01 0.00 0.00 0.00 0.01 0.01 0.01 0.01 0.02 0.06 0.12 0.15 0.14
0.01 0.00 0.00 0.00 0.00 0.00 0.00 0.00 0.01 0.02 0.03 0.03 0.04 0.07 0.12 0.17 0.17 0.13 0.06 0.05 0.05 0.03 0.04 0.03 0.02 0.03 0.02 0.02 0.02 0.02 0.02 0.00 0.00 0.00 0.00 0.00 0.00 0.00 0.01 0.06 0.15 0.21 0.20
0.00 0.00 0.00 0.00 0.00 0.00 0.00 0.00 0.01 0.02 0.04 0.06 0.09 0.12 0.14 0.14 0.14 0.15 0.10 0.07 0.05 0.03 0.02 0.01 0.02 0.02 0.02 0.03 0.03 0.04 0.03 0.01 0.00 0.00 0.00 0.00 0.00 0.00 0.01 0.05 0.14 0.23 0.24
0.00 0.00 0.00 0.00 0.00 0.00 0.00 0.00 0.00 0.02 0.04 0.07 0.10 0.13 0.15 0.15 0.15 0.15 0.11 0.07 0.05 0.03 0.02 0.01 0.01 0.01 0.01 0.02 0.03 0.03 0.02 0.01 0.00 0.00 0.00 0.00 0.00 0.01 0.01 0.05 0.12 0.20 0.21
0.00 0.00 0.00 0.00 0.00 0.00 0.00 0.00 0.00 0.01 0.03 0.05 0.07 0.08 0.09 0.12 0.15 0.17 0.17 0.15 0.10 0.06 0.04 0.02 0.01 0.01 0.02 0.04 0.06 0.04 0.01 0.00 0.00 0.00 0.00 0.00 0.00 0.01 0.01 0.03 0.10 0.17 0.16
0.00 0.00 0.00 0.00 0.00 0.00 0.00 0.00 0.00 0.01 0.04 0.08 0.10 0.12 0.14 0.13 0.15 0.17 0.18 0.18 0.16 0.13 0.07 0.03 0.02 0.04 0.07 0.09 0.08 0.03 0.01 0.00 0.00 0.00 0.00 0.00 0.00 0.00 0.01 0.02 0.06 0.11 0.13
0.00 0.00 0.00 0.00 0.00 0.00 0.00 0.00 0.00 0.01 0.05 0.09 0.13 0.16 0.18 0.19 0.19 0.18 0.17 0.17 0.17 0.15 0.09 0.04 0.04 0.06 0.08 0.09 0.08 0.05 0.01 0.00 0.00 0.00 0.00 0.00 0.00 0.00 0.01 0.03 0.06 0.09 0.10
0.00 0.00 0.00 0.00 0.00 0.00 0.00 0.00 0.00 0.01 0.02 0.04 0.07 0.10 0.12 0.13 0.13 0.14 0.13 0.13 0.14 0.16 0.11 0.06 0.05 0.05 0.06 0.09 0.12 0.08 0.04 0.02 0.01 0.00 0.00 0.00 0.00 0.00 0.01 0.03 0.07 0.09 0.08
0.00 0.00 0.00 0.00 0.00 0.00 0.00 0.00 0.00 0.00 0.00 0.01 0.02 0.02 0.02 0.03 0.03 0.04 0.05 0.06 0.08 0.10 0.10 0.07 0.05 0.03 0.03 0.07 0.14 0.13 0.06 0.02 0.01 0.00 0.00 0.00 0.00 0.00 0.01 0.03 0.06 0.07 0.07
0.00 0.00 0.00 0.00 0.00 0.00 0.00 0.00 0.00 0.00 0.00 0.00 0.00 0.00 0.00 0.00 0.00 0.00 0.00 0.01 0.01 0.03 0.04 0.05 0.04 0.03 0.02 0.04 0.10 0.11 0.09 0.04 0.01 0.00 0.00 0.01 0.00 0.00 0.00 0.01 0.03 0.04 0.04
0.00 0.00 0.00 0.00 0.00 0.00 0.00 0.00 0.00 0.00 0.00 0.00 0.00 0.00 0.00 0.00 0.00 0.00 0.00 0.00 0.00 0.00 0.01 0.02 0.02 0.02 0.02 0.03 0.06 0.11 0.12 0.08 0.04 0.01 0.00 0.01 0.00 0.00 0.00 0.00 0.01 0.02 0.01
0.00 0.00 0.00 0.00 0.00 0.00 0.00 0.00 0.00 0.00 0.00 0.00 0.00 0.00 0.00 0.00 0.00 0.00 0.00 0.00 0.00 0.00 0.00 0.00 0.01 0.02 0.02 0.04 0.07 0.12 0.17 0.14 0.07 0.03 0.02 0.00 0.00 0.00 0.00 0.00 0.00 0.01 0.01
0.00 0.00 0.00 0.00 0.00 0.00 0.00 0.00 0.00 0.00 0.00 0.00 0.00 0.00 0.00 0.00 0.00 0.00 0.00 0.00 0.00 0.00 0.00 0.00 0.00 0.01 0.01 0.03 0.06 0.12 0.19 0.18 0.12 0.06 0.03 0.02 0.01 0.01 0.00 0.00 0.00 0.00 0.00
0.01 0.00 0.00 0.00 0.00 0.00 0.00 0.00 0.00 0.00 0.00 0.00 0.00 0.00 0.00 0.00 0.00 0.00 0.00 0.00 0.00 0.00 0.00 0.00 0.00 0.00 0.01 0.02 0.04 0.09 0.19 0.27 0.25 0.18 0.10 0.04 0.02 0.02 0.01 0.01 0.01 0.01 0.00
0.01 0.00 0.00 0.00 0.00 0.00 0.00 0.00 0.00 0.00 0.00 0.00 0.00 0.00 0.00 0.00 0.00 0.00 0.00 0.00 0.00 0.00 0.00 0.00 0.00 0.00 0.00 0.01 0.02 0.04 0.09 0.20 0.32 0.37 0.28 0.18 0.09 0.04 0.02 0.01 0.01 0.01 0.01
0.00 0.00 0.00 0.00 0.00 0.00 0.00 0.00 0.00 0.00 0.00 0.00 0.00 0.00 0.00 0.00 0.00 0.00 0.00 0.00 0.00 0.00 0.00 0.00 0.00 0.00 0.00 0.00 0.00 0.01 0.02 0.04 0.10 0.20 0.28 0.29 0.21 0.12 0.06 0.03 0.02 0.01 0.01
0.00 0.00 0.00 0.00 0.00 0.00 0.00 0.00 0.00 0.00 0.00 0.00 0.00 0.00 0.00 0.00 0.00 0.00 0.00 0.00 0.00 0.00 0.00 0.00 0.00 0.00 0.00 0.00 0.00 0.00 0.00 0.00 0.01 0.02 0.05 0.08 0.11 0.10 0.08 0.06 0.03 0.02 0.01

GEFSMA_prec_meanprec_018.txt.gz
QPF
0.00 0.00 0.00 0.01 0.01 0.01 0.02 0.04 0.06 0.07 0.08 0.06 0.04 0.04 0.05 0.09 0.10 0.14 0.09 0.06 0.04 0.03 0.05 0.07 0.06 0.06 0.06 0.05 0.04 0.03 0.02 0.01 0.01 0.01 0.01 0.01 0.02 0.02 0.03 0.05 0.05 0.02 0.01
0.01 0.01 0.01 0.02 0.02 0.02 0.02 0.02 0.04 0.06 0.08 0.07 0.04 0.05 0.05 0.05 0.07 0.12 0.08 0.05 0.01 0.01 0.01 0.03 0.04 0.05 0.06 0.04 0.03 0.02 0.01 0.01 0.01 0.00 0.01 0.01 0.02 0.03 0.04 0.04 0.04 0.02 0.00
0.01 0.02 0.02 0.03 0.04 0.04 0.03 0.03 0.05 0.06 0.05 0.04 0.02 0.03 0.02 0.02 0.02 0.04 0.04 0.02 0.00 0.00 0.00 0.01 0.02 0.02 0.03 0.03 0.03 0.02 0.01 0.01 0.00 0.00 0.00 0.01 0.01 0.02 0.03 0.04 0.05 0.04 0.01
0.02 0.05 0.05 0.05 0.08 0.06 0.05 0.06 0.07 0.05 0.05 0.05 0.04 0.02 0.01 0.01 0.00 0.01 0.01 0.01 0.01 0.00 0.00 0.00 0.01 0.02 0.02 0.02 0.02 0.02 0.01 0.01 0.00 0.00 0.01 0.01 0.01 0.01 0.02 0.02 0.03 0.03 0.01
0.03 0.08 0.08 0.10 0.11 0.08 0.09 0.07 0.06 0.06 0.05 0.05 0.04 0.03 0.01 0.01 0.00 0.00 0.00 0.00 0.00 0.00 0.00 0.01 0.00 0.01 0.02 0.03 0.03 0.02 0.01 0.01 0.00 0.00 0.01 0.01 0.01 0.01 0.01 0.01 0.02 0.03 0.01
0.09 0.13 0.13 0.14 0.12 0.12 0.11 0.09 0.06 0.05 0.04 0.04 0.02 0.01 0.01 0.00 0.00 0.00 0.00 0.00 0.00 0.00 0.00 0.00 0.02 0.01 0.00 0.02 0.03 0.03 0.02 0.01 0.01 0.01 0.01 0.01 0.02 0.02 0.01 0.01 0.01 0.02 0.01
0.19 0.20 0.16 0.17 0.13 0.11 0.08 0.06 0.04 0.02 0.02 0.03 0.02 0.01 0.00 0.00 0.00 0.00 0.00 0.00 0.00 0.00 0.00 0.01 0.01 0.02 0.02 0.00 0.01 0.02 0.03 0.03 0.02 0.01 0.01 0.01 0.01 0.01 0.01 0.00 0.01 0.01 0.01
0.34 0.30 0.24 0.18 0.11 0.06 0.03 0.02 0.01 0.01 0.01 0.01 0.03 0.04 0.01 0.00 0.00 0.00 0.00 0.00 0.00 0.00 0.01 0.01 0.02 0.08 0.06 0.02 0.02 0.02 0.01 0.03 0.03 0.03 0.03 0.02 0.01 0.01 0.01 0.01 0.01 0.01 0.01
0.60 0.51 0.38 0.22 0.10 0.04 0.02 0.01 0.01 0.01 0.01 0.01 0.04 0.07 0.05 0.02 0.01 0.00 0.00 0.01 0.02 0.03 0.02 0.03 0.03 0.05 0.06 0.04 0.04 0.05 0.03 0.01 0.02 0.04 0.04 0.03 0.01 0.00 0.01 0.01 0.01 0.01 0.01
0.70 0.55 0.37 0.21 0.08 0.03 0.02 0.01 0.00 0.01 0.02 0.02 0.03 0.06 0.09 0.09 0.08 0.03 0.01 0.02 0.04 0.04 0.05 0.03 0.02 0.03 0.04 0.03 0.03 0.09 0.09 0.03 0.01 0.02 0.04 0.04 0.03 0.01 0.01 0.01 0.01 0.02 0.02
0.64 0.49 0.32 0.18 0.08 0.03 0.01 0.00 0.00 0.01 0.02 0.02 0.04 0.04 0.06 0.09 0.10 0.08 0.03 0.04 0.06 0.06 0.05 0.04 0.02 0.02 0.01 0.01 0.03 0.04 0.09 0.09 0.07 0.02 0.01 0.02 0.03 0.02 0.01 0.01 0.01 0.03 0.06
0.38 0.27 0.18 0.11 0.06 0.04 0.02 0.01 0.01 0.01 0.01 0.02 0.04 0.06 0.07 0.09 0.12 0.13 0.10 0.10 0.10 0.08 0.07 0.04 0.02 0.02 0.02 0.01 0.01 0.02 0.04 0.05 0.06 0.05 0.03 0.02 0.01 0.01 0.01 0.01 0.01 0.02 0.08
0.24 0.17 0.12 0.09 0.07 0.05 0.02 0.01 0.01 0.01 0.01 0.02 0.03 0.05 0.07 0.09 0.12 0.14 0.15 0.15 0.13 0.12 0.09 0.06 0.04 0.03 0.02 0.02 0.04 0.02 0.03 0.04 0.05 0.04 0.03 0.02 0.01 0.00 0.00 0.00 0.01 0.02 0.08
0.16 0.12 0.09 0.08 0.07 0.05 0.02 0.01 0.01 0.01 0.01 0.02 0.02 0.04 0.06 0.06 0.07 0.10 0.12 0.12 0.13 0.14 0.12 0.09 0.05 0.03 0.03 0.05 0.05 0.04 0.06 0.06 0.04 0.02 0.02 0.01 0.01 0.00 0.00 0.00 0.00 0.02 0.08
0.06 0.05 0.05 0.05 0.05 0.03 0.02 0.01 0.01 0.01 0.02 0.04 0.06 0.06 0.06 0.06 0.05 0.05 0.05 0.05 0.05 0.06 0.05 0.05 0.04 0.03 0.03 0.05 0.06 0.07 0.10 0.06 0.03 0.01 0.01 0.01 0.00 0.00 0.00 0.00 0.00 0.01 0.04
0.02 0.02 0.02 0.02 0.02 0.01 0.01 0.01 0.01 0.01 0.03 0.05 0.06 0.07 0.06 0.05 0.04 0.03 0.03 0.04 0.04 0.05 0.04 0.04 0.03 0.03 0.03 0.03 0.05 0.08 0.09 0.06 0.03 0.01 0.01 0.00 0.00 0.00 0.00 0.00 0.00 0.01 0.03
0.02 0.01 0.01 0.01 0.01 0.01 0.00 0.01 0.01 0.01 0.03 0.03 0.02 0.03 0.03 0.02 0.02 0.01 0.02 0.03 0.05 0.06 0.06 0.05 0.05 0.04 0.04 0.05 0.05 0.07 0.08 0.06 0.04 0.03 0.02 0.01 0.01 0.00 0.01 0.01 0.02 0.03 0.06
0.02 0.01 0.01 0.01 0.00 0.00 0.01 0.01 0.01 0.01 0.02 0.02 0.01 0.01 0.01 0.01 0.01 0.01 0.01 0.02 0.03 0.05 0.06 0.07 0.07 0.07 0.07 0.07 0.07 0.07 0.09 0.09 0.09 0.09 0.06 0.03 0.02 0.02 0.02 0.03 0.05 0.08 0.13
0.01 0.00 0.00 0.00 0.00 0.01 0.01 0.02 0.01 0.01 0.01 0.00 0.00 0.00 0.00 0.01 0.01 0.01 0.01 0.01 0.01 0.02 0.05 0.07 0.09 0.11 0.11 0.10 0.08 0.10 0.12 0.12 0.11 0.09 0.08 0.06 0.05 0.03 0.03 0.03 0.06 0.11 0.18
0.00 0.00 0.00 0.00 0.01 0.01 0.01 0.01 0.00 0.00 0.00 0.00 0.00 0.00 0.00 0.00 0.00 0.00 0.00 0.00 0.00 0.01 0.04 0.08 0.11 0.11 0.10 0.09 0.09 0.11 0.15 0.18 0.17 0.14 0.12 0.09 0.07 0.04 0.02 0.02 0.04 0.08 0.17
0.00 0.00 0.00 0.00 0.00 0.00 0.00 0.00 0.00 0.00 0.00 0.00 0.00 0.00 0.00 0.00 0.00 0.00 0.00 0.00 0.01 0.02 0.03 0.05 0.05 0.05 0.04 0.03 0.04 0.08 0.15 0.25 0.26 0.22 0.17 0.11 0.08 0.05 0.02 0.01 0.02 0.05 0.12
0.00 0.00 0.00 0.00 0.00 0.00 0.00 0.00 0.00 0.00 0.00 0.00 0.00 0.00 0.00 0.00 0.00 0.00 0.00 0.00 0.00 0.01 0.01 0.02 0.01 0.01 0.02 0.01 0.02 0.06 0.12 0.22 0.33 0.38 0.32 0.24 0.16 0.11 0.07 0.04 0.01 0.02 0.06
0.00 0.00 0.00 0.00 0.00 0.00 0.00 0.00 0.00 0.00 0.00 0.00 0.00 0.00 0.00 0.00 0.00 0.00 0.00 0.00 0.00 0.00 0.00 0.01 0.01 0.01 0.01 0.01 0.01 0.03 0.07 0.15 0.32 0.47 0.53 0.58 0.42 0.24 0.15 0.08 0.02 0.00 0.01
0.01 0.00 0.00 0.00 0.00 0.00 0.00 0.00 0.00 0.00 0.00 0.00 0.00 0.00 0.00 0.00 0.00 0.00 0.00 0.01 0.00 0.00 0.00 0.00 0.01 0.01 0.00 0.01 0.02 0.02 0.03 0.06 0.15 0.30 0.43 0.58 0.61 0.51 0.34 0.20 0.09 0.03 0.01
0.01 0.00 0.00 0.00 0.00 0.00 0.00 0.00 0.00 0.00 0.00 0.00 0.00 0.00 0.00 0.00 0.00 0.00 0.00 0.00 0.00 0.00 0.00 0.00 0.00 0.00 0.00 0.00 0.01 0.01 0.01 0.02 0.04 0.10 0.23 0.41 0.53 0.55 0.52 0.40 0.23 0.12 0.07
0.01 0.00 0.00 0.00 0.00 0.00 0.00 0.00 0.00 0.00 0.00 0.00 0.00 0.00 0.00 0.00 0.00 0.00 0.00 0.00 0.00 0.01 0.00 0.00 0.00 0.00 0.00 0.00 0.00 0.00 0.01 0.01 0.02 0.03 0.06 0.17 0.31 0.43 0.55 0.55 0.45 0.32 0.19

GEFSMA_prec_meanprec_024.txt.gz
QPF
0.01 0.01 0.00 0.00 0.00 0.01 0.03 0.05 0.02 0.05 0.06 0.03 0.01 0.00 0.00 0.01 0.01 0.01 0.02 0.01 0.00 0.00 0.00 0.00 0.00 0.00 0.00 0.00 0.00 0.00 0.00 0.00 0.00 0.00 0.00 0.00 0.00 0.01 0.01 0.01 0.01 0.02 0.01
0.00 0.01 0.01 0.02 0.01 0.01 0.01 0.02 0.02 0.06 0.06 0.05 0.03 0.00 0.00 0.00 0.00 0.01 0.01 0.01 0.00 0.00 0.00 0.00 0.00 0.00 0.00 0.00 0.00 0.00 0.00 0.00 0.00 0.00 0.00 0.00 0.00 0.00 0.00 0.00 0.01 0.01 0.01
0.00 0.01 0.01 0.03 0.04 0.04 0.06 0.05 0.06 0.09 0.08 0.10 0.08 0.04 0.02 0.01 0.00 0.00 0.00 0.00 0.00 0.01 0.00 0.00 0.01 0.01 0.00 0.00 0.00 0.00 0.00 0.00 0.00 0.00 0.00 0.00 0.00 0.00 0.00 0.00 0.00 0.01 0.02
0.01 0.06 0.06 0.05 0.10 0.09 0.11 0.14 0.14 0.15 0.17 0.17 0.15 0.06 0.02 0.01 0.00 0.00 0.00 0.00 0.00 0.00 0.00 0.01 0.02 0.01 0.01 0.01 0.01 0.00 0.00 0.00 0.00 0.00 0.00 0.00 0.00 0.00 0.00 0.00 0.00 0.01 0.01
0.04 0.09 0.09 0.12 0.14 0.14 0.16 0.14 0.22 0.23 0.23 0.20 0.15 0.08 0.02 0.01 0.00 0.00 0.00 0.00 0.00 0.00 0.00 0.02 0.01 0.00 0.01 0.01 0.01 0.01 0.01 0.00 0.00 0.00 0.00 0.00 0.00 0.00 0.00 0.00 0.00 0.00 0.01
0.07 0.12 0.13 0.14 0.15 0.16 0.17 0.19 0.23 0.24 0.22 0.19 0.10 0.05 0.03 0.01 0.00 0.00 0.00 0.00 0.00 0.00 0.00 0.00 0.01 0.01 0.02 0.02 0.02 0.02 0.03 0.01 0.00 0.00 0.00 0.00 0.00 0.00 0.00 0.00 0.00 0.00 0.00
0.09 0.14 0.14 0.17 0.18 0.18 0.18 0.20 0.20 0.20 0.19 0.20 0.15 0.08 0.02 0.00 0.00 0.00 0.00 0.00 0.00 0.00 0.00 0.00 0.02 0.04 0.06 0.04 0.04 0.04 0.04 0.03 0.02 0.01 0.00 0.00 0.00 0.00 0.00 0.00 0.00 0.00 0.00
0.11 0.14 0.17 0.20 0.23 0.23 0.22 0.21 0.21 0.21 0.18 0.16 0.15 0.11 0.05 0.01 0.00 0.00 0.00 0.00 0.00 0.00 0.00 0.00 0.01 0.03 0.05 0.09 0.10 0.06 0.05 0.06 0.06 0.04 0.02 0.01 0.01 0.00 0.01 0.01 0.01 0.01 0.01
0.16 0.18 0.21 0.23 0.25 0.25 0.24 0.23 0.24 0.24 0.20 0.15 0.14 0.15 0.10 0.06 0.02 0.00 0.00 0.00 0.01 0.01 0.00 0.01 0.01 0.04 0.05 0.08 0.15 0.17 0.08 0.06 0.09 0.11 0.10 0.05 0.02 0.00 0.01 0.02 0.03 0.02 0.01
0.20 0.19 0.21 0.24 0.26 0.24 0.21 0.19 0.20 0.22 0.22 0.20 0.20 0.20 0.17 0.13 0.08 0.02 0.01 0.02 0.05 0.07 0.08 0.05 0.03 0.03 0.07 0.10 0.16 0.27 0.17 0.06 0.05 0.10 0.13 0.09 0.05 0.02 0.01 0.02 0.05 0.06 0.04
0.10 0.11 0.16 0.21 0.23 0.22 0.19 0.17 0.18 0.19 0.22 0.21 0.20 0.18 0.18 0.16 0.15 0.10 0.05 0.08 0.11 0.13 0.15 0.12 0.10 0.09 0.10 0.14 0.20 0.20 0.22 0.14 0.09 0.06 0.07 0.07 0.07 0.06 0.04 0.04 0.05 0.08 0.09
0.06 0.06 0.08 0.12 0.16 0.17 0.18 0.18 0.19 0.19 0.19 0.20 0.18 0.17 0.15 0.13 0.14 0.15 0.10 0.11 0.12 0.17 0.18 0.17 0.17 0.19 0.15 0.13 0.19 0.24 0.21 0.14 0.10 0.08 0.06 0.04 0.05 0.05 0.05 0.04 0.05 0.06 0.07
0.09 0.08 0.08 0.11 0.13 0.14 0.16 0.17 0.18 0.18 0.20 0.20 0.19 0.17 0.15 0.13 0.13 0.13 0.12 0.12 0.12 0.16 0.18 0.18 0.14 0.11 0.08 0.09 0.15 0.16 0.11 0.08 0.07 0.07 0.06 0.05 0.04 0.04 0.04 0.03 0.03 0.04 0.04
0.16 0.17 0.15 0.14 0.15 0.19 0.18 0.18 0.19 0.20 0.20 0.20 0.17 0.16 0.14 0.12 0.10 0.09 0.08 0.07 0.07 0.11 0.14 0.13 0.10 0.07 0.04 0.05 0.05 0.04 0.06 0.04 0.03 0.02 0.03 0.03 0.03 0.04 0.04 0.03 0.02 0.02 0.02
0.17 0.19 0.18 0.16 0.18 0.19 0.18 0.16 0.16 0.18 0.21 0.22 0.20 0.18 0.15 0.12 0.09 0.06 0.05 0.03 0.03 0.03 0.05 0.06 0.04 0.02 0.01 0.02 0.01 0.04 0.13 0.08 0.02 0.01 0.01 0.01 0.02 0.02 0.02 0.02 0.01 0.01 0.01
0.17 0.19 0.19 0.19 0.17 0.13 0.11 0.10 0.13 0.15 0.18 0.20 0.19 0.17 0.15 0.13 0.10 0.08 0.06 0.04 0.03 0.03 0.04 0.04 0.04 0.03 0.02 0.01 0.01 0.02 0.07 0.04 0.02 0.01 0.01 0.01 0.01 0.01 0.01 0.01 0.01 0.01 0.01
0.19 0.20 0.20 0.18 0.14 0.11 0.09 0.11 0.15 0.18 0.19 0.20 0.16 0.13 0.11 0.08 0.07 0.05 0.03 0.03 0.03 0.03 0.03 0.04 0.06 0.06 0.06 0.06 0.05 0.04 0.04 0.05 0.05 0.02 0.01 0.01 0.01 0.01 0.01 0.01 0.01 0.01 0.01
0.20 0.18 0.15 0.14 0.12 0.11 0.13 0.17 0.18 0.20 0.19 0.15 0.10 0.09 0.06 0.03 0.03 0.02 0.02 0.02 0.02 0.02 0.03 0.04 0.06 0.08 0.09 0.09 0.09 0.09 0.06 0.04 0.06 0.05 0.04 0.03 0.02 0.02 0.02 0.02 0.02 0.02 0.02
0.16 0.14 0.11 0.11 0.12 0.15 0.18 0.21 0.19 0.14 0.08 0.04 0.03 0.03 0.02 0.01 0.01 0.01 0.01 0.01 0.01 0.01 0.03 0.05 0.07 0.09 0.09 0.08 0.08 0.09 0.10 0.11 0.09 0.07 0.06 0.04 0.04 0.03 0.03 0.03 0.04 0.05 0.05
0.11 0.11 0.13 0.15 0.17 0.19 0.17 0.13 0.08 0.04 0.03 0.02 0.01 0.01 0.00 0.00 0.00 0.00 0.00 0.00 0.01 0.03 0.05 0.05 0.06 0.06 0.05 0.05 0.05 0.05 0.07 0.11 0.12 0.11 0.10 0.08 0.07 0.08 0.08 0.07 0.06 0.05 0.07
0.12 0.12 0.12 0.14 0.14 0.13 0.10 0.05 0.04 0.02 0.01 0.00 0.00 0.00 0.00 0.00 0.00 0.00 0.00 0.00 0.01 0.02 0.03 0.04 0.03 0.02 0.01 0.01 0.01 0.02 0.04 0.08 0.12 0.11 0.12 0.13 0.13 0.15 0.16 0.13 0.09 0.07 0.07
0.08 0.09 0.11 0.10 0.07 0.05 0.04 0.02 0.01 0.01 0.00 0.00 0.00 0.00 0.00 0.00 0.00 0.00 0.00 0.00 0.00 0.00 0.01 0.02 0.01 0.01 0.01 0.01 0.02 0.03 0.03 0.03 0.05 0.06 0.11 0.18 0.22 0.23 0.26 0.25 0.18 0.13 0.10
0.03 0.05 0.05 0.03 0.01 0.00 0.00 0.00 0.00 0.00 0.00 0.00 0.00 0.00 0.00 0.00 0.00 0.01 0.01 0.00 0.00 0.00 0.00 0.01 0.01 0.00 0.00 0.01 0.02 0.03 0.05 0.05 0.05 0.04 0.07 0.14 0.21 0.28 0.33 0.32 0.20 0.13 0.10
0.02 0.03 0.02 0.00 0.00 0.00 0.00 0.00 0.00 0.00 0.00 0.00 0.00 0.00 0.00 0.00 0.00 0.00 0.01 0.01 0.00 0.00 0.00 0.00 0.00 0.00 0.00 0.00 0.01 0.03 0.05 0.10 0.11 0.06 0.06 0.09 0.14 0.22 0.30 0.34 0.26 0.15 0.10
0.04 0.03 0.02 0.00 0.00 0.00 0.00 0.00 0.00 0.00 0.00 0.00 0.00 0.00 0.00 0.00 0.00 0.00 0.01 0.01 0.01 0.01 0.00 0.00 0.00 0.00 0.00 0.00 0.00 0.00 0.01 0.04 0.09 0.08 0.05 0.07 0.09 0.14 0.20 0.24 0.25 0.18 0.11
0.06 0.03 0.02 0.01 0.00 0.00 0.00 0.00 0.00 0.00 0.01 0.00 0.00 0.00 0.00 0.00 0.00 0.00 0.00 0.01 0.01 0.01 0.01 0.00 0.00 0.00 0.00 0.00 0.00 0.00 0.00 0.01 0.03 0.05 0.04 0.05 0.08 0.10 0.14 0.15 0.17 0.19 0.18

GEFSMA_prec_meanprec_030.txt.gz
QPF
0.00 0.00 0.00 0.00 0.00 0.00 0.01 0.00 0.00 0.01 0.01 0.01 0.01 0.01 0.03 0.04 0.03 0.03 0.03 0.01 0.01 0.01 0.02 0.03 0.04 0.04 0.03 0.02 0.01 0.01 0.00 0.01 0.01 0.00 0.00 0.01 0.02 0.03 0.03 0.04 0.04 0.04 0.04
0.00 0.00 0.00 0.00 0.00 0.00 0.00 0.01 0.01 0.01 0.01 0.01 0.01 0.01 0.02 0.03 0.03 0.03 0.04 0.03 0.02 0.01 0.01 0.03 0.05 0.05 0.05 0.04 0.02 0.02 0.01 0.01 0.01 0.01 0.00 0.01 0.01 0.02 0.02 0.02 0.02 0.02 0.02
0.00 0.00 0.00 0.00 0.00 0.00 0.00 0.00 0.00 0.01 0.01 0.01 0.02 0.03 0.04 0.04 0.05 0.03 0.04 0.06 0.05 0.03 0.01 0.02 0.04 0.06 0.07 0.06 0.05 0.05 0.03 0.01 0.01 0.01 0.01 0.00 0.01 0.01 0.01 0.01 0.01 0.01 0.01
0.03 0.04 0.03 0.02 0.02 0.02 0.02 0.03 0.03 0.03 0.04 0.04 0.05 0.06 0.05 0.04 0.03 0.03 0.03 0.06 0.07 0.06 0.03 0.02 0.03 0.05 0.07 0.08 0.10 0.11 0.07 0.04 0.02 0.01 0.01 0.00 0.00 0.00 0.00 0.01 0.01 0.00 0.00
0.09 0.09 0.07 0.07 0.08 0.08 0.09 0.10 0.10 0.09 0.08 0.08 0.08 0.07 0.05 0.04 0.03 0.03 0.04 0.04 0.04 0.05 0.05 0.04 0.03 0.04 0.09 0.17 0.19 0.16 0.12 0.09 0.04 0.03 0.02 0.01 0.01 0.01 0.00 0.00 0.01 0.00 0.00
0.15 0.20 0.20 0.21 0.22 0.22 0.20 0.20 0.17 0.14 0.13 0.12 0.09 0.05 0.04 0.04 0.02 0.03 0.04 0.03 0.03 0.02 0.03 0.06 0.07 0.06 0.12 0.23 0.23 0.22 0.19 0.13 0.09 0.05 0.04 0.02 0.01 0.01 0.00 0.00 0.00 0.00 0.00
0.22 0.35 0.38 0.38 0.39 0.36 0.32 0.30 0.24 0.18 0.14 0.15 0.11 0.06 0.04 0.02 0.01 0.01 0.01 0.02 0.02 0.02 0.02 0.05 0.08 0.09 0.11 0.17 0.23 0.20 0.18 0.15 0.12 0.08 0.06 0.04 0.02 0.01 0.00 0.00 0.00 0.00 0.00
0.32 0.42 0.49 0.53 0.52 0.47 0.37 0.28 0.24 0.18 0.13 0.15 0.14 0.11 0.06 0.03 0.01 0.02 0.04 0.06 0.08 0.08 0.08 0.08 0.06 0.07 0.10 0.13 0.16 0.12 0.13 0.17 0.17 0.15 0.10 0.06 0.03 0.01 0.00 0.00 0.00 0.00 0.00
0.44 0.50 0.52 0.50 0.43 0.36 0.26 0.20 0.21 0.18 0.13 0.13 0.15 0.15 0.13 0.10 0.07 0.03 0.04 0.08 0.12 0.13 0.14 0.13 0.11 0.09 0.08 0.13 0.16 0.17 0.12 0.16 0.20 0.22 0.18 0.11 0.06 0.02 0.02 0.02 0.02 0.01 0.01
0.24 0.27 0.29 0.33 0.29 0.26 0.20 0.18 0.20 0.17 0.12 0.10 0.12 0.14 0.16 0.20 0.19 0.10 0.03 0.03 0.05 0.08 0.09 0.08 0.09 0.08 0.08 0.14 0.18 0.22 0.18 0.18 0.19 0.24 0.23 0.17 0.11 0.06 0.04 0.04 0.07 0.08 0.05
0.09 0.12 0.16 0.19 0.17 0.17 0.16 0.16 0.16 0.12 0.10 0.08 0.09 0.12 0.15 0.18 0.21 0.17 0.09 0.05 0.03 0.02 0.02 0.02 0.04 0.06 0.09 0.12 0.15 0.20 0.23 0.23 0.24 0.23 0.21 0.21 0.19 0.14 0.09 0.09 0.14 0.17 0.16
0.05 0.07 0.09 0.11 0.12 0.12 0.11 0.10 0.10 0.09 0.07 0.06 0.07 0.09 0.12 0.15 0.19 0.22 0.17 0.12 0.06 0.02 0.03 0.04 0.05 0.06 0.10 0.15 0.16 0.19 0.21 0.17 0.16 0.18 0.19 0.20 0.21 0.19 0.16 0.16 0.20 0.25 0.24
0.03 0.04 0.05 0.06 0.06 0.06 0.06 0.06 0.06 0.05 0.05 0.06 0.07 0.10 0.13 0.15 0.17 0.21 0.19 0.15 0.09 0.05 0.07 0.08 0.06 0.05 0.05 0.06 0.07 0.08 0.08 0.07 0.07 0.08 0.10 0.12 0.14 0.16 0.16 0.16 0.18 0.19 0.21
0.03 0.04 0.05 0.06 0.06 0.08 0.08 0.08 0.06 0.06 0.07 0.07 0.08 0.10 0.13 0.15 0.17 0.20 0.20 0.14 0.10 0.08 0.07 0.07 0.04 0.02 0.02 0.01 0.00 0.01 0.01 0.01 0.01 0.02 0.03 0.04 0.06 0.08 0.09 0.12 0.13 0.13 0.13
0.03 0.04 0.06 0.09 0.12 0.16 0.18 0.18 0.15 0.14 0.14 0.14 0.12 0.12 0.15 0.17 0.19 0.21 0.20 0.14 0.10 0.07 0.05 0.03 0.02 0.01 0.00 0.00 0.00 0.00 0.00 0.00 0.00 0.00 0.00 0.00 0.01 0.02 0.03 0.04 0.06 0.07 0.08
0.03 0.05 0.09 0.14 0.19 0.23 0.25 0.26 0.25 0.24 0.22 0.19 0.16 0.15 0.15 0.15 0.15 0.17 0.15 0.10 0.07 0.04 0.03 0.02 0.01 0.01 0.00 0.00 0.00 0.00 0.00 0.00 0.00 0.00 0.00 0.00 0.00 0.00 0.01 0.01 0.02 0.03 0.03
0.03 0.05 0.10 0.16 0.23 0.27 0.29 0.30 0.30 0.28 0.27 0.25 0.22 0.19 0.16 0.13 0.09 0.08 0.07 0.04 0.03 0.02 0.01 0.01 0.01 0.00 0.00 0.00 0.00 0.00 0.00 0.00 0.00 0.00 0.00 0.00 0.00 0.00 0.01 0.01 0.01 0.02 0.02
0.03 0.06 0.10 0.13 0.19 0.23 0.24 0.27 0.32 0.31 0.28 0.27 0.24 0.19 0.14 0.09 0.05 0.03 0.02 0.01 0.01 0.00 0.00 0.00 0.00 0.00 0.00 0.00 0.00 0.00 0.01 0.01 0.01 0.01 0.00 0.00 0.00 0.00 0.00 0.00 0.00 0.00 0.01
0.03 0.05 0.08 0.12 0.18 0.24 0.27 0.27 0.29 0.31 0.31 0.28 0.25 0.19 0.12 0.06 0.02 0.01 0.00 0.00 0.00 0.00 0.00 0.00 0.00 0.00 0.00 0.00 0.00 0.00 0.00 0.01 0.01 0.01 0.01 0.01 0.00 0.00 0.00 0.00 0.00 0.00 0.00
0.02 0.04 0.06 0.09 0.15 0.21 0.27 0.33 0.32 0.30 0.23 0.16 0.12 0.09 0.06 0.03 0.01 0.00 0.00 0.00 0.00 0.00 0.00 0.00 0.00 0.00 0.00 0.00 0.00 0.00 0.00 0.00 0.01 0.01 0.01 0.01 0.01 0.00 0.00 0.00 0.01 0.01 0.00
0.01 0.03 0.07 0.09 0.11 0.15 0.21 0.19 0.16 0.14 0.09 0.05 0.03 0.02 0.02 0.01 0.00 0.00 0.00 0.00 0.00 0.00 0.00 0.00 0.00 0.00 0.00 0.00 0.00 0.00 0.00 0.00 0.00 0.00 0.01 0.01 0.01 0.01 0.01 0.01 0.01 0.02 0.01
0.01 0.02 0.05 0.09 0.10 0.12 0.19 0.12 0.06 0.04 0.04 0.03 0.02 0.01 0.01 0.01 0.00 0.00 0.00 0.00 0.00 0.00 0.00 0.00 0.00 0.00 0.00 0.00 0.00 0.00 0.00 0.00 0.00 0.00 0.00 0.00 0.00 0.01 0.01 0.01 0.01 0.02 0.02
0.01 0.01 0.01 0.02 0.04 0.05 0.08 0.06 0.02 0.02 0.02 0.02 0.01 0.00 0.00 0.00 0.00 0.00 0.00 0.00 0.00 0.00 0.00 0.00 0.00 0.00 0.00 0.00 0.00 0.00 0.00 0.00 0.00 0.00 0.00 0.00 0.00 0.00 0.01 0.01 0.02 0.03 0.04
0.00 0.00 0.00 0.00 0.01 0.01 0.02 0.02 0.01 0.01 0.01 0.01 0.00 0.00 0.00 0.00 0.00 0.00 0.00 0.00 0.00 0.00 0.00 0.00 0.00 0.00 0.00 0.00 0.00 0.00 0.00 0.00 0.00 0.00 0.00 0.00 0.01 0.01 0.01 0.01 0.02 0.03 0.05
0.00 0.00 0.00 0.00 0.00 0.00 0.00 0.00 0.00 0.00 0.00 0.00 0.00 0.00 0.00 0.00 0.00 0.00 0.00 0.00 0.00 0.00 0.00 0.00 0.00 0.00 0.00 0.00 0.00 0.00 0.00 0.00 0.00 0.00 0.00 0.00 0.00 0.01 0.01 0.01 0.01 0.01 0.03
0.00 0.00 0.00 0.00 0.00 0.00 0.00 0.00 0.00 0.00 0.00 0.00 0.00 0.00 0.00 0.00 0.00 0.00 0.00 0.00 0.00 0.00 0.00 0.00 0.00 0.00 0.00 0.00 0.00 0.00 0.00 0.00 0.00 0.00 0.00 0.00 0.00 0.00 0.00 0.01 0.01 0.01 0.02

GEFSMA_prec_meanprec_036.txt.gz
QPF
0.00 0.00 0.00 0.01 0.01 0.01 0.01 0.03 0.05 0.06 0.06 0.06 0.04 0.03 0.02 0.01 0.01 0.02 0.02 0.01 0.01 0.02 0.04 0.07 0.08 0.08 0.06 0.06 0.06 0.06 0.06 0.06 0.06 0.05 0.04 0.05 0.08 0.10 0.12 0.13 0.12 0.10 0.08
0.03 0.04 0.03 0.03 0.04 0.05 0.06 0.10 0.13 0.15 0.14 0.12 0.09 0.08 0.08 0.07 0.05 0.04 0.03 0.03 0.01 0.01 0.02 0.05 0.08 0.09 0.07 0.07 0.07 0.06 0.06 0.06 0.05 0.04 0.04 0.04 0.05 0.06 0.08 0.10 0.11 0.09 0.06
0.12 0.13 0.10 0.09 0.14 0.20 0.21 0.24 0.26 0.24 0.20 0.18 0.15 0.18 0.18 0.16 0.12 0.09 0.06 0.05 0.03 0.02 0.01 0.03 0.06 0.08 0.09 0.11 0.11 0.10 0.08 0.06 0.05 0.05 0.04 0.03 0.03 0.03 0.04 0.05 0.07 0.06 0.04
0.24 0.25 0.19 0.19 0.32 0.39 0.39 0.39 0.37 0.31 0.26 0.24 0.22 0.24 0.23 0.19 0.17 0.12 0.06 0.05 0.03 0.01 0.01 0.01 0.03 0.05 0.08 0.13 0.17 0.16 0.11 0.08 0.06 0.05 0.04 0.03 0.03 0.03 0.02 0.03 0.03 0.03 0.02
0.30 0.33 0.27 0.31 0.45 0.53 0.50 0.48 0.44 0.39 0.32 0.30 0.28 0.24 0.21 0.17 0.13 0.09 0.05 0.03 0.01 0.01 0.01 0.01 0.01 0.04 0.08 0.14 0.17 0.16 0.13 0.11 0.08 0.07 0.06 0.05 0.04 0.03 0.02 0.02 0.02 0.02 0.02
0.32 0.41 0.32 0.33 0.45 0.52 0.50 0.48 0.45 0.38 0.33 0.32 0.29 0.19 0.13 0.11 0.09 0.06 0.04 0.02 0.01 0.00 0.00 0.01 0.01 0.02 0.03 0.08 0.11 0.14 0.15 0.13 0.09 0.07 0.08 0.07 0.07 0.04 0.01 0.01 0.01 0.01 0.01
0.21 0.29 0.29 0.34 0.41 0.41 0.38 0.41 0.43 0.36 0.29 0.33 0.30 0.18 0.11 0.09 0.07 0.04 0.03 0.02 0.01 0.01 0.01 0.01 0.01 0.02 0.02 0.03 0.07 0.10 0.12 0.10 0.08 0.08 0.10 0.10 0.09 0.06 0.02 0.01 0.00 0.00 0.01
0.15 0.17 0.19 0.22 0.30 0.34 0.31 0.33 0.36 0.33 0.27 0.32 0.33 0.25 0.13 0.08 0.06 0.05 0.04 0.03 0.02 0.02 0.02 0.03 0.03 0.04 0.05 0.05 0.05 0.04 0.04 0.07 0.09 0.10 0.11 0.10 0.09 0.06 0.03 0.01 0.01 0.00 0.00
0.08 0.09 0.11 0.15 0.18 0.24 0.22 0.24 0.30 0.32 0.28 0.29 0.33 0.33 0.23 0.13 0.10 0.08 0.05 0.03 0.02 0.02 0.03 0.05 0.06 0.09 0.08 0.06 0.05 0.04 0.03 0.04 0.07 0.13 0.14 0.12 0.09 0.07 0.05 0.03 0.01 0.01 0.00
0.02 0.03 0.05 0.08 0.11 0.14 0.13 0.16 0.21 0.23 0.24 0.23 0.24 0.27 0.27 0.21 0.14 0.07 0.04 0.03 0.02 0.02 0.03 0.05 0.06 0.07 0.07 0.07 0.07 0.06 0.05 0.04 0.03 0.06 0.10 0.11 0.11 0.09 0.08 0.08 0.06 0.04 0.01
0.00 0.01 0.01 0.02 0.04 0.04 0.05 0.07 0.08 0.10 0.13 0.14 0.14 0.14 0.15 0.13 0.09 0.06 0.03 0.02 0.02 0.02 0.04 0.07 0.07 0.07 0.07 0.07 0.07 0.06 0.05 0.04 0.03 0.03 0.04 0.08 0.12 0.14 0.14 0.15 0.14 0.10 0.05
0.00 0.00 0.00 0.00 0.01 0.01 0.01 0.02 0.03 0.04 0.05 0.05 0.06 0.07 0.08 0.07 0.05 0.04 0.03 0.02 0.02 0.03 0.05 0.09 0.08 0.06 0.04 0.04 0.03 0.03 0.03 0.03 0.03 0.03 0.03 0.05 0.10 0.15 0.20 0.22 0.24 0.23 0.19
0.00 0.00 0.00 0.00 0.00 0.00 0.01 0.01 0.02 0.02 0.03 0.03 0.03 0.04 0.04 0.03 0.03 0.03 0.02 0.02 0.03 0.03 0.06 0.10 0.10 0.05 0.03 0.02 0.01 0.01 0.01 0.01 0.01 0.02 0.02 0.03 0.06 0.11 0.18 0.23 0.26 0.26 0.25
0.00 0.00 0.00 0.00 0.00 0.00 0.01 0.01 0.02 0.02 0.02 0.03 0.02 0.03 0.03 0.03 0.03 0.03 0.03 0.03 0.03 0.04 0.07 0.11 0.10 0.05 0.03 0.01 0.01 0.00 0.00 0.00 0.00 0.00 0.01 0.01 0.02 0.05 0.09 0.14 0.18 0.22 0.25
0.00 0.00 0.00 0.00 0.00 0.01 0.01 0.02 0.03 0.03 0.04 0.04 0.04 0.05 0.04 0.04 0.05 0.05 0.05 0.05 0.05 0.06 0.08 0.10 0.09 0.04 0.02 0.01 0.00 0.00 0.00 0.00 0.00 0.00 0.00 0.00 0.01 0.02 0.04 0.06 0.09 0.12 0.14
0.00 0.00 0.00 0.00 0.00 0.01 0.02 0.03 0.03 0.04 0.06 0.07 0.09 0.09 0.09 0.08 0.08 0.09 0.10 0.12 0.11 0.09 0.08 0.07 0.05 0.03 0.01 0.00 0.00 0.00 0.00 0.00 0.00 0.00 0.00 0.00 0.00 0.00 0.01 0.02 0.03 0.05 0.07
0.00 0.00 0.00 0.00 0.00 0.01 0.02 0.04 0.05 0.07 0.10 0.13 0.16 0.15 0.14 0.14 0.13 0.12 0.13 0.15 0.14 0.11 0.07 0.05 0.03 0.02 0.01 0.00 0.00 0.00 0.00 0.00 0.00 0.00 0.00 0.00 0.00 0.00 0.00 0.00 0.00 0.01 0.02
0.00 0.00 0.00 0.00 0.00 0.01 0.02 0.03 0.05 0.09 0.13 0.16 0.18 0.19 0.20 0.19 0.16 0.15 0.14 0.13 0.12 0.09 0.06 0.03 0.02 0.01 0.00 0.00 0.00 0.00 0.00 0.00 0.00 0.00 0.00 0.00 0.00 0.00 0.00 0.00 0.00 0.00 0.00
0.00 0.00 0.00 0.00 0.01 0.03 0.04 0.06 0.08 0.13 0.17 0.22 0.27 0.29 0.26 0.21 0.17 0.15 0.12 0.09 0.07 0.05 0.03 0.02 0.01 0.00 0.00 0.00 0.00 0.00 0.00 0.00 0.00 0.00 0.00 0.00 0.00 0.00 0.00 0.00 0.00 0.00 0.00
0.00 0.00 0.00 0.01 0.02 0.02 0.05 0.08 0.12 0.16 0.20 0.22 0.25 0.28 0.27 0.21 0.15 0.12 0.09 0.06 0.04 0.02 0.01 0.00 0.00 0.00 0.00 0.00 0.00 0.00 0.00 0.00 0.00 0.00 0.00 0.00 0.00 0.00 0.00 0.00 0.00 0.00 0.00
0.00 0.00 0.00 0.01 0.02 0.02 0.03 0.06 0.08 0.10 0.13 0.14 0.14 0.14 0.14 0.14 0.13 0.09 0.06 0.04 0.02 0.01 0.01 0.00 0.00 0.00 0.00 0.00 0.00 0.00 0.00 0.00 0.00 0.00 0.00 0.00 0.00 0.00 0.00 0.00 0.00 0.00 0.00
0.00 0.00 0.00 0.01 0.01 0.02 0.03 0.03 0.03 0.03 0.05 0.06 0.09 0.10 0.08 0.07 0.07 0.07 0.05 0.04 0.03 0.02 0.01 0.01 0.00 0.00 0.00 0.00 0.00 0.00 0.00 0.00 0.00 0.00 0.00 0.00 0.00 0.00 0.00 0.00 0.00 0.00 0.00
0.00 0.00 0.00 0.00 0.01 0.02 0.04 0.04 0.02 0.02 0.02 0.02 0.03 0.06 0.05 0.04 0.03 0.02 0.02 0.02 0.02 0.02 0.01 0.00 0.00 0.00 0.00 0.00 0.00 0.00 0.00 0.00 0.00 0.00 0.00 0.00 0.00 0.00 0.00 0.00 0.00 0.00 0.00
0.00 0.00 0.00 0.00 0.00 0.01 0.02 0.04 0.03 0.02 0.02 0.03 0.02 0.02 0.01 0.01 0.01 0.01 0.01 0.00 0.00 0.00 0.00 0.00 0.00 0.00 0.00 0.00 0.00 0.00 0.00 0.00 0.00 0.00 0.00 0.00 0.00 0.00 0.00 0.00 0.00 0.00 0.00
0.00 0.00 0.00 0.00 0.00 0.00 0.00 0.01 0.01 0.01 0.02 0.01 0.01 0.01 0.01 0.00 0.01 0.00 0.00 0.00 0.00 0.00 0.00 0.00 0.00 0.00 0.00 0.00 0.00 0.00 0.00 0.00 0.00 0.00 0.00 0.00 0.00 0.00 0.00 0.00 0.00 0.00 0.00
0.02 0.00 0.00 0.00 0.00 0.00 0.00 0.00 0.00 0.00 0.00 0.00 0.00 0.01 0.01 0.00 0.00 0.00 0.00 0.00 0.00 0.00 0.00 0.00 0.00 0.00 0.00 0.00 0.00 0.00 0.00 0.00 0.00 0.00 0.00 0.00 0.00 0.00 0.00 0.00 0.00 0.00 0.00

GEFSMA_prec_meanprec_042.txt.gz
QPF
0.02 0.03 0.02 0.02 0.02 0.04 0.05 0.08 0.11 0.17 0.18 0.17 0.14 0.12 0.11 0.13 0.12 0.11 0.07 0.04 0.05 0.06 0.10 0.11 0.10 0.09 0.08 0.08 0.08 0.08 0.08 0.09 0.08 0.06 0.05 0.05 0.04 0.04 0.06 0.07 0.07 0.08 0.09
0.05 0.07 0.07 0.07 0.07 0.09 0.12 0.16 0.22 0.25 0.21 0.19 0.14 0.13 0.13 0.13 0.11 0.11 0.09 0.07 0.06 0.04 0.06 0.09 0.10 0.09 0.09 0.09 0.08 0.07 0.07 0.07 0.06 0.04 0.03 0.03 0.03 0.03 0.05 0.07 0.07 0.07 0.07
0.09 0.09 0.08 0.09 0.12 0.14 0.15 0.16 0.20 0.25 0.19 0.16 0.12 0.14 0.14 0.11 0.09 0.09 0.10 0.09 0.05 0.03 0.03 0.04 0.05 0.06 0.07 0.07 0.07 0.07 0.05 0.04 0.04 0.03 0.02 0.02 0.02 0.02 0.02 0.04 0.05 0.05 0.05
0.14 0.13 0.10 0.09 0.14 0.16 0.16 0.18 0.21 0.24 0.20 0.17 0.14 0.12 0.11 0.10 0.08 0.07 0.07 0.07 0.05 0.02 0.01 0.01 0.01 0.02 0.02 0.04 0.05 0.07 0.06 0.03 0.03 0.03 0.02 0.01 0.01 0.02 0.02 0.02 0.02 0.02 0.02
0.13 0.13 0.10 0.08 0.14 0.14 0.11 0.13 0.19 0.24 0.24 0.23 0.21 0.15 0.10 0.09 0.06 0.05 0.04 0.03 0.03 0.03 0.01 0.01 0.01 0.01 0.00 0.01 0.03 0.05 0.06 0.04 0.03 0.03 0.03 0.03 0.02 0.02 0.02 0.01 0.01 0.01 0.01
0.09 0.10 0.08 0.08 0.12 0.12 0.10 0.13 0.18 0.23 0.21 0.23 0.22 0.15 0.12 0.09 0.07 0.06 0.04 0.02 0.02 0.01 0.01 0.01 0.01 0.00 0.00 0.00 0.01 0.02 0.05 0.05 0.04 0.03 0.04 0.05 0.05 0.03 0.02 0.01 0.01 0.01 0.00
0.03 0.04 0.05 0.06 0.09 0.10 0.11 0.14 0.21 0.25 0.22 0.24 0.26 0.18 0.12 0.10 0.08 0.05 0.04 0.02 0.02 0.01 0.01 0.01 0.01 0.00 0.00 0.00 0.00 0.01 0.02 0.05 0.05 0.04 0.05 0.06 0.08 0.07 0.04 0.02 0.01 0.00 0.00
0.00 0.01 0.01 0.03 0.04 0.05 0.08 0.11 0.15 0.17 0.16 0.21 0.21 0.20 0.14 0.10 0.07 0.06 0.05 0.05 0.04 0.03 0.02 0.01 0.01 0.01 0.01 0.01 0.02 0.01 0.01 0.03 0.05 0.07 0.06 0.05 0.07 0.07 0.05 0.03 0.01 0.01 0.00
0.00 0.00 0.00 0.01 0.02 0.02 0.02 0.04 0.07 0.09 0.10 0.13 0.14 0.17 0.15 0.10 0.11 0.10 0.09 0.06 0.04 0.03 0.02 0.02 0.01 0.01 0.01 0.02 0.03 0.04 0.03 0.04 0.04 0.06 0.08 0.07 0.06 0.06 0.05 0.05 0.04 0.02 0.01
0.00 0.00 0.00 0.00 0.01 0.01 0.01 0.01 0.03 0.04 0.06 0.06 0.07 0.08 0.10 0.13 0.13 0.10 0.08 0.04 0.02 0.02 0.01 0.02 0.02 0.02 0.03 0.04 0.06 0.07 0.07 0.07 0.05 0.05 0.06 0.07 0.05 0.04 0.04 0.06 0.10 0.08 0.04
0.00 0.00 0.00 0.00 0.01 0.01 0.01 0.02 0.02 0.03 0.03 0.03 0.04 0.05 0.06 0.08 0.08 0.07 0.05 0.04 0.03 0.02 0.02 0.03 0.04 0.04 0.04 0.04 0.06 0.06 0.07 0.08 0.08 0.05 0.04 0.04 0.05 0.05 0.05 0.08 0.15 0.18 0.14
0.00 0.00 0.00 0.00 0.00 0.01 0.01 0.02 0.02 0.02 0.03 0.03 0.04 0.05 0.05 0.04 0.03 0.04 0.03 0.04 0.05 0.04 0.04 0.05 0.06 0.06 0.04 0.05 0.04 0.03 0.04 0.05 0.06 0.05 0.04 0.04 0.05 0.05 0.07 0.12 0.21 0.27 0.27
0.00 0.00 0.00 0.00 0.00 0.01 0.01 0.02 0.02 0.03 0.03 0.04 0.04 0.05 0.05 0.05 0.06 0.07 0.06 0.06 0.07 0.07 0.08 0.08 0.07 0.05 0.03 0.04 0.02 0.01 0.01 0.01 0.02 0.03 0.04 0.04 0.05 0.06 0.10 0.14 0.18 0.23 0.28
0.00 0.00 0.00 0.00 0.00 0.00 0.01 0.01 0.02 0.03 0.04 0.05 0.05 0.06 0.07 0.07 0.07 0.07 0.08 0.09 0.08 0.09 0.11 0.10 0.07 0.06 0.05 0.03 0.01 0.00 0.00 0.00 0.00 0.01 0.01 0.02 0.03 0.05 0.08 0.13 0.18 0.20 0.23
0.00 0.00 0.00 0.00 0.00 0.00 0.00 0.01 0.02 0.02 0.04 0.05 0.06 0.08 0.09 0.09 0.09 0.09 0.10 0.11 0.11 0.11 0.13 0.12 0.09 0.07 0.06 0.04 0.02 0.03 0.01 0.00 0.00 0.00 0.00 0.01 0.02 0.02 0.03 0.07 0.13 0.16 0.20
0.00 0.00 0.00 0.00 0.00 0.00 0.00 0.01 0.02 0.03 0.04 0.05 0.07 0.07 0.08 0.09 0.11 0.11 0.12 0.14 0.16 0.16 0.14 0.10 0.09 0.08 0.06 0.04 0.03 0.04 0.01 0.00 0.00 0.00 0.00 0.00 0.01 0.01 0.01 0.02 0.04 0.08 0.13
0.00 0.00 0.00 0.00 0.00 0.00 0.01 0.01 0.02 0.04 0.04 0.06 0.07 0.08 0.09 0.10 0.12 0.14 0.15 0.16 0.18 0.19 0.14 0.09 0.08 0.09 0.07 0.05 0.05 0.04 0.03 0.02 0.00 0.00 0.00 0.00 0.00 0.00 0.00 0.00 0.01 0.02 0.05
0.00 0.00 0.00 0.00 0.00 0.00 0.01 0.01 0.02 0.03 0.04 0.06 0.07 0.09 0.10 0.12 0.14 0.15 0.16 0.16 0.16 0.17 0.15 0.12 0.09 0.08 0.06 0.05 0.04 0.03 0.03 0.01 0.00 0.00 0.00 0.00 0.00 0.00 0.00 0.00 0.00 0.00 0.01
0.01 0.01 0.00 0.00 0.00 0.00 0.01 0.01 0.02 0.03 0.04 0.05 0.07 0.09 0.11 0.13 0.14 0.14 0.15 0.15 0.14 0.14 0.14 0.13 0.11 0.08 0.06 0.04 0.03 0.02 0.02 0.01 0.00 0.00 0.00 0.00 0.00 0.00 0.00 0.00 0.00 0.00 0.00
0.01 0.01 0.01 0.00 0.00 0.00 0.00 0.01 0.01 0.01 0.03 0.04 0.06 0.09 0.12 0.14 0.15 0.15 0.15 0.15 0.15 0.14 0.12 0.13 0.11 0.08 0.06 0.04 0.03 0.02 0.01 0.01 0.00 0.00 0.00 0.00 0.00 0.00 0.00 0.00 0.00 0.00 0.00
0.01 0.01 0.01 0.01 0.01 0.00 0.00 0.01 0.01 0.01 0.02 0.03 0.05 0.09 0.13 0.16 0.18 0.17 0.16 0.18 0.19 0.16 0.12 0.10 0.08 0.07 0.05 0.04 0.03 0.01 0.01 0.00 0.00 0.00 0.00 0.00 0.00 0.00 0.00 0.00 0.00 0.00 0.00
0.02 0.02 0.02 0.02 0.01 0.01 0.00 0.00 0.00 0.01 0.01 0.03 0.04 0.07 0.12 0.14 0.16 0.17 0.16 0.16 0.17 0.16 0.12 0.07 0.06 0.05 0.04 0.03 0.02 0.01 0.00 0.00 0.00 0.00 0.00 0.00 0.00 0.00 0.00 0.00 0.00 0.00 0.00
0.03 0.03 0.03 0.03 0.02 0.02 0.00 0.00 0.00 0.00 0.01 0.01 0.02 0.03 0.08 0.13 0.12 0.11 0.10 0.09 0.08 0.07 0.07 0.06 0.04 0.03 0.02 0.01 0.01 0.00 0.00 0.00 0.00 0.00 0.00 0.00 0.00 0.00 0.00 0.00 0.00 0.00 0.00
0.04 0.04 0.04 0.04 0.04 0.03 0.01 0.00 0.00 0.00 0.01 0.01 0.01 0.02 0.04 0.05 0.05 0.05 0.04 0.03 0.03 0.02 0.03 0.03 0.02 0.01 0.01 0.01 0.00 0.00 0.00 0.00 0.00 0.00 0.00 0.00 0.00 0.00 0.00 0.00 0.00 0.00 0.00
0.06 0.07 0.08 0.07 0.07 0.06 0.02 0.00 0.01 0.01 0.02 0.02 0.02 0.02 0.02 0.01 0.01 0.02 0.02 0.02 0.01 0.01 0.01 0.01 0.00 0.00 0.00 0.00 0.00 0.00 0.00 0.00 0.00 0.00 0.00 0.00 0.00 0.00 0.00 0.00 0.00 0.00 0.00
0.08 0.10 0.10 0.10 0.10 0.09 0.06 0.01 0.01 0.02 0.02 0.02 0.02 0.02 0.02 0.01 0.01 0.01 0.02 0.02 0.01 0.00 0.00 0.00 0.00 0.00 0.00 0.00 0.00 0.00 0.00 0.00 0.00 0.00 0.00 0.00 0.00 0.00 0.00 0.00 0.00 0.00 0.00